Lapse_Rate
7.0 6.9 7.4 6.5 6.9 8.6 8.8 8.3 7.7 7.2 7.4 7.0 7.0 6.3 6.2 6.2 6.0 5.6 5.1 5.1 5.7 5.7 5.6 5.7 5.8 5.8 5.6 5.5 5.7 5.9 5.8 6.0 6.0 5.9 6.0 6.1 5.8 5.5 5.4 5.4 5.2 5.1 4.8 5.0 4.8 4.8 5.0 5.1 4.7
7.6 7.7 6.2 7.3 7.4 8.6 8.2 7.4 7.3 7.2 7.2 6.9 6.6 6.6 5.9 5.8 5.6 5.4 5.1 4.8 5.6 5.7 5.7 5.7 5.9 5.9 5.7 5.7 5.9 5.8 5.9 6.0 6.0 5.9 6.0 6.0 5.8 5.5 5.6 5.6 5.4 5.2 4.9 4.9 5.0 5.5 5.3 4.9 4.8
7.4 7.3 6.9 7.9 9.0 8.4 8.4 7.6 7.4 7.2 7.2 7.1 6.7 6.0 6.0 5.6 5.5 5.1 5.0 4.7 5.0 5.6 5.6 5.7 5.8 5.9 5.8 5.8 5.8 5.8 5.8 6.0 6.0 6.0 5.9 5.9 5.8 5.6 5.6 5.8 5.8 5.6 5.5 5.9 5.5 5.3 5.2 5.0 5.0
7.5 6.1 7.4 8.8 9.3 8.5 8.1 7.7 7.5 7.3 7.1 7.0 6.6 6.3 5.9 5.7 5.4 5.1 5.0 4.9 4.9 5.5 5.5 5.7 5.6 5.8 5.8 5.8 5.9 5.8 5.9 6.0 5.9 5.9 5.9 5.8 5.8 5.6 5.7 5.8 5.6 5.9 5.9 6.1 5.8 5.5 5.0 5.2 5.2
6.2 6.9 8.3 9.2 9.1 8.8 8.1 7.6 7.5 7.2 7.3 7.1 6.4 6.0 5.8 5.5 5.1 5.1 5.0 5.0 5.3 5.6 5.6 5.7 5.6 5.7 5.7 5.8 5.8 5.8 5.9 5.9 5.8 5.6 5.9 5.8 5.8 5.8 5.7 5.6 5.6 5.6 5.7 5.6 5.6 5.4 5.5 5.5 5.4
6.9 7.4 8.6 9.2 9.2 8.5 7.9 7.8 7.5 7.3 7.0 6.6 6.3 5.9 5.8 5.3 5.5 5.1 5.2 5.4 5.0 5.8 5.8 5.7 5.6 5.6 5.6 5.6 5.7 5.9 6.0 5.9 5.9 5.9 5.8 5.8 5.7 5.8 5.8 5.7 5.6 5.7 5.6 5.5 5.7 5.7 5.6 5.4 5.4
7.3 7.9 8.8 8.5 8.5 8.1 7.9 7.8 7.5 7.5 7.0 6.8 6.3 5.9 5.8 5.6 5.4 5.4 5.2 5.2 4.9 5.5 5.6 5.8 5.6 5.6 5.4 5.4 5.6 5.8 5.9 6.0 6.0 6.0 5.8 5.8 5.7 5.7 5.8 5.7 5.6 5.6 5.6 5.5 5.7 5.7 5.4 5.3 5.4
8.1 7.3 8.2 8.4 8.6 7.9 7.8 7.8 8.0 7.5 7.1 7.1 6.7 6.1 6.0 5.7 5.5 5.4 5.4 5.1 5.2 5.2 5.8 5.7 5.6 5.6 5.4 5.3 5.6 5.6 5.7 5.8 5.9 6.0 5.9 5.7 5.7 5.6 5.7 5.8 5.7 5.7 5.6 5.6 5.7 5.6 5.4 5.4 5.6
8.4 8.0 8.8 9.0 8.5 7.8 8.2 8.0 7.2 7.6 7.1 7.0 7.0 6.5 6.1 5.8 5.7 5.5 5.4 5.1 5.3 5.2 5.0 5.2 5.5 5.4 5.3 5.2 5.4 5.6 5.6 5.6 5.7 5.8 5.8 5.7 5.7 5.3 5.3 5.5 5.7 5.6 5.5 5.5 5.5 5.4 5.3 5.3 5.4
8.4 9.3 9.3 9.3 8.5 8.3 8.0 8.0 7.2 7.7 7.2 7.2 7.0 6.5 6.3 5.9 5.7 5.4 5.3 5.6 5.6 5.6 5.1 5.1 5.2 5.2 5.1 5.1 5.1 5.3 5.6 5.6 5.6 5.8 5.7 5.6 5.6 5.8 5.5 5.2 5.5 5.6 5.6 5.7 5.6 5.7 5.5 5.4 5.5
8.1 9.2 8.4 8.5 8.6 8.2 8.3 8.5 8.4 8.2 7.3 7.0 6.7 6.3 6.0 6.0 5.9 5.6 5.3 5.3 5.1 5.5 5.0 5.0 5.5 5.3 5.2 5.0 5.3 5.0 5.3 5.6 5.4 5.3 5.7 5.8 5.4 5.3 5.6 5.0 5.5 5.6 5.6 5.5 5.4 5.4 5.5 5.5 5.0
8.4 8.6 8.3 8.4 8.9 9.0 8.3 8.4 7.9 7.9 7.7 7.4 6.7 6.3 6.1 6.0 6.2 6.0 5.7 5.5 5.4 5.3 5.1 5.5 5.6 5.7 5.6 5.3 5.5 5.3 5.3 5.1 5.3 5.4 5.2 5.5 5.6 5.4 5.1 5.7 5.7 5.4 5.4 5.3 5.1 5.4 5.3 5.1 5.1
8.3 8.7 8.7 8.4 8.9 8.5 8.3 8.5 7.7 7.6 7.3 6.9 6.8 6.5 6.1 6.2 6.3 6.2 6.1 5.7 5.4 5.1 5.1 5.5 5.6 5.6 5.6 5.2 5.4 5.6 5.5 5.8 5.8 5.7 5.7 5.5 5.5 5.7 5.5 5.0 5.2 4.9 4.9 5.4 5.3 5.2 5.3 5.2 5.1
8.3 8.5 8.4 9.0 8.7 7.9 8.0 7.5 7.9 7.5 7.2 6.7 6.4 6.3 6.4 6.4 6.5 6.3 6.0 5.8 5.5 5.2 5.1 5.7 5.7 5.6 5.8 5.7 5.8 5.7 5.8 5.5 5.6 5.7 5.8 5.7 5.6 5.4 5.5 5.3 5.1 5.0 5.2 5.0 4.9 4.9 4.8 5.0 5.2
8.5 7.5 8.1 8.7 8.6 7.7 7.7 7.4 7.5 7.6 7.2 6.8 6.5 6.3 6.1 6.1 6.3 6.2 5.9 5.6 5.6 5.4 5.4 5.7 5.8 5.8 5.9 5.8 6.0 5.6 6.0 5.7 5.9 5.4 5.6 5.6 5.6 5.3 5.5 5.2 5.4 5.1 5.1 4.8 4.8 5.0 5.1 5.5 5.5
8.2 7.8 7.9 8.4 8.9 8.0 7.8 7.7 7.2 7.5 7.2 7.0 6.9 6.7 6.6 6.3 6.2 6.1 6.0 5.8 5.6 5.4 5.6 5.9 5.5 5.9 5.9 5.4 5.8 5.8 5.6 5.8 5.9 5.8 5.6 5.4 5.4 5.6 5.6 5.5 5.7 5.5 5.4 5.2 5.3 5.4 5.2 5.2 5.4
7.9 6.3 7.3 8.2 9.1 9.0 8.7 7.9 8.2 7.4 7.3 7.1 7.0 6.6 6.5 6.4 6.6 6.1 6.0 5.9 5.9 5.8 5.7 5.7 5.8 5.4 5.8 5.7 5.7 5.6 5.5 5.4 5.6 5.6 5.4 5.5 5.5 5.6 5.6 5.6 5.4 5.3 5.4 5.3 5.5 5.6 5.4 5.3 5.3
8.3 7.2 6.5 7.7 9.2 9.4 8.9 8.8 8.4 7.9 7.5 7.2 7.0 6.6 6.5 6.1 6.5 6.8 6.3 5.8 6.0 5.9 5.9 5.8 5.8 5.8 5.7 6.0 5.6 5.8 5.2 5.1 5.3 5.7 5.5 5.7 5.8 5.8 5.8 5.9 5.6 5.6 5.6 5.7 5.8 5.8 5.7 5.6 5.7
7.6 7.3 8.1 8.6 9.2 9.1 8.7 9.4 8.1 8.2 8.2 7.7 7.2 6.8 6.4 6.4 6.1 5.9 6.2 6.2 5.9 5.8 6.0 6.0 5.9 6.2 6.0 5.9 5.6 5.5 5.0 5.1 5.4 5.2 5.3 5.4 5.7 5.7 5.6 5.6 5.7 5.8 5.6 5.8 5.8 5.7 5.7 5.9 6.0
7.6 8.0 8.7 8.8 8.4 8.7 8.7 8.4 8.0 7.9 8.5 8.3 7.7 7.1 6.6 6.2 6.1 5.9 5.7 5.7 5.7 6.0 5.7 5.7 5.8 6.0 6.0 5.8 5.9 5.5 5.5 5.6 5.4 5.4 5.7 5.6 5.8 5.9 6.0 5.7 5.7 5.9 5.9 5.8 5.9 6.0 5.9 5.9 6.0
8.6 9.0 9.1 8.8 9.2 9.1 8.8 8.4 8.3 8.5 8.4 8.6 8.1 7.6 6.8 6.4 6.1 6.0 5.8 5.7 5.7 5.7 5.7 6.0 5.9 6.0 6.1 6.0 5.8 5.8 5.9 5.8 5.7 6.0 5.9 5.7 5.7 6.2 6.0 6.0 6.1 5.9 5.7 5.9 6.0 5.9 5.9 6.0 6.0
9.3 8.9 9.1 9.5 9.6 9.5 8.8 8.1 8.2 7.2 8.5 8.8 8.1 7.7 7.2 6.7 7.1 6.3 5.8 5.9 5.7 5.4 5.6 5.9 6.0 6.1 6.0 6.0 5.9 6.0 6.2 6.1 5.7 5.8 6.1 6.1 6.0 6.2 6.1 6.0 5.9 5.7 5.6 5.6 5.7 5.7 5.7 5.8 5.8
9.5 9.2 8.9 9.7 9.0 8.5 8.8 8.2 7.5 8.3 8.2 8.4 8.4 8.1 8.0 7.3 6.9 6.6 6.2 5.9 5.8 5.7 5.6 6.1 6.0 6.0 5.9 6.0 6.4 6.5 6.5 6.4 6.2 6.2 6.1 6.4 6.2 6.1 6.1 6.0 6.1 6.1 5.7 5.6 5.6 5.6 5.7 5.8 5.8
8.8 8.9 9.1 9.0 8.4 8.2 8.0 7.7 7.5 8.4 9.0 8.9 8.4 8.3 8.1 7.9 7.3 6.8 6.3 6.1 5.7 5.9 6.1 6.1 6.0 6.1 6.4 6.4 6.6 6.6 6.6 6.5 6.5 6.5 6.4 6.4 6.4 6.4 6.1 6.1 6.0 5.9 5.9 5.5 5.4 5.4 5.5 5.4 5.4
9.0 9.1 9.6 7.3 7.4 7.9 8.3 7.4 7.5 8.4 9.4 9.0 8.5 8.2 8.0 7.8 7.4 6.8 6.5 6.2 6.1 6.5 6.5 6.3 6.2 6.3 6.5 6.7 6.8 6.7 6.6 6.6 6.5 6.5 6.5 6.6 6.6 6.5 6.5 6.3 6.1 6.1 5.8 5.8 5.5 5.3 5.6 5.7 5.7
9.6 9.6 9.7 9.1 8.3 8.3 8.4 8.3 8.8 8.9 9.1 8.9 8.5 8.3 8.1 7.7 7.4 7.0 6.4 6.7 6.9 6.9 6.8 6.6 6.4 6.6 6.6 6.7 6.7 6.7 6.6 6.6 6.8 6.7 7.0 6.7 6.5 6.5 6.4 6.3 6.2 6.1 6.0 5.9 5.7 5.7 6.0 5.6 5.5
9.1 9.6 9.6 9.7 9.7 8.4 8.4 8.2 8.6 8.9 9.1 8.7 8.4 8.4 8.1 7.9 7.5 7.0 6.7 7.0 7.0 7.1 6.9 6.8 6.6 6.8 6.8 7.0 6.9 6.9 6.9 7.2 7.1 6.9 6.9 6.8 6.8 6.4 6.2 6.2 6.1 6.0 6.1 6.2 6.1 5.8 5.9 5.8 5.8
9.3 9.4 9.5 9.7 8.6 7.3 8.6 9.2 7.8 9.4 9.4 9.4 9.0 8.5 8.1 7.9 7.4 7.1 6.7 6.9 6.8 6.8 7.1 7.1 6.8 6.6 6.7 6.8 7.0 7.0 6.9 7.0 7.0 6.8 6.7 6.6 6.5 6.3 6.3 6.3 6.1 6.0 6.0 6.1 6.1 6.2 6.1 6.1 6.1
9.5 9.0 9.0 9.6 8.9 7.1 8.4 9.7 9.3 9.8 9.7 9.5 9.2 8.8 8.3 7.8 7.4 7.3 7.0 7.0 6.9 6.8 7.1 7.1 7.1 6.9 6.8 6.8 7.0 7.1 7.0 6.9 6.9 6.8 6.6 6.5 6.3 6.3 6.4 6.4 6.3 6.3 6.2 6.1 6.1 6.0 5.9 5.9 5.9
9.1 9.7 9.7 9.7 9.6 9.6 9.5 9.0 8.9 9.7 9.7 9.4 9.3 9.1 8.6 8.3 7.8 7.8 7.4 7.5 7.3 7.1 7.0 7.1 7.0 7.0 7.0 6.9 6.9 6.8 6.8 6.9 6.9 6.8 6.7 6.5 6.3 6.3 6.1 6.1 6.0 6.1 6.1 6.1 6.1 6.2 6.2 6.1 6.1
Wind_Speed
10 11 8 10 2 2 15 15 14 7 18 21 23 12 14 10 12 14 17 21 23 18 18 16 14 14 14 16 14 16 16 16 17 19 20 20 20 20 21 20 20 19 19 13 10 13 20 20 19
10 14 8 3 3 14 12 15 13 13 9 15 19 19 22 22 21 19 16 23 22 19 19 17 14 14 15 15 13 14 15 16 16 19 20 21 21 21 23 21 21 21 19 18 16 19 20 18 15
11 15 8 5 13 11 12 13 11 13 11 10 16 12 15 18 19 18 17 18 23 19 22 17 15 13 15 14 13 12 14 14 14 16 20 21 21 20 20 22 22 22 21 20 19 19 19 18 14
7 8 7 10 15 15 14 13 12 12 11 14 19 16 17 23 21 17 17 15 23 20 22 16 15 13 13 13 13 12 14 14 15 15 18 19 19 19 18 19 20 20 19 19 20 18 18 16 12
11 5 2 11 15 14 10 16 13 12 7 17 21 20 17 21 19 15 18 21 20 18 20 17 14 12 11 13 12 12 13 12 12 17 15 18 18 17 17 17 17 17 18 17 17 14 14 13 10
9 9 10 10 14 16 14 13 15 17 15 19 19 18 19 18 16 15 17 16 15 20 19 17 14 12 11 11 11 11 12 12 12 13 16 14 16 15 16 17 16 16 15 14 14 12 12 11 8
6 7 8 11 14 13 17 10 13 13 17 19 18 19 17 17 13 16 18 16 18 20 17 17 15 14 12 12 10 10 10 11 12 12 13 13 15 15 16 15 14 14 13 13 12 10 8 7 5
12 5 16 12 14 14 12 15 13 13 10 15 20 15 17 17 14 16 13 15 15 11 15 15 18 17 15 13 11 10 10 10 10 10 11 13 15 15 15 15 14 12 12 10 10 8 7 7 7
12 4 13 13 16 6 10 22 21 12 13 5 14 19 20 18 14 15 14 15 10 9 11 12 16 17 15 14 11 10 10 10 10 10 10 11 12 13 14 11 14 12 11 10 9 8 8 9 10
4 1 16 16 14 12 13 22 19 6 12 14 20 22 20 18 15 15 13 12 11 8 7 7 14 11 10 7 14 10 12 11 11 11 15 14 10 16 7 13 16 13 13 12 11 11 13 11 11
10 13 14 14 16 8 10 15 8 14 13 14 18 19 19 18 15 14 14 15 11 13 6 11 12 13 10 7 8 8 9 4 14 11 3 9 10 21 18 14 12 12 14 10 10 13 12 12 13
5 11 11 7 5 14 9 11 14 11 13 16 18 18 17 16 15 13 14 13 14 14 9 12 11 11 5 6 8 4 3 7 1 3 3 3 2 3 2 7 11 11 12 10 16 12 13 11 4
8 20 9 7 8 9 9 8 12 11 14 16 19 17 16 14 14 12 14 13 13 13 10 14 10 5 5 5 6 10 7 6 2 3 4 2 3 3 3 3 8 7 12 8 8 8 8 3 6
13 21 17 4 8 19 14 9 7 12 15 17 17 16 12 11 11 11 13 10 12 12 9 15 10 7 5 2 8 6 3 9 7 5 1 6 4 3 3 1 3 5 3 1 4 2 1 3 4
31 13 24 14 5 6 21 16 5 15 16 16 16 16 16 13 11 12 14 13 11 11 10 11 11 10 6 3 7 8 8 7 3 4 7 3 3 4 1 1 3 5 6 2 3 2 4 4 4
14 9 2 16 11 13 17 9 15 17 17 15 14 13 16 13 15 9 12 10 12 10 9 11 9 14 9 6 9 6 6 4 5 6 10 11 9 11 6 4 4 11 8 5 3 3 1 4 4
12 6 10 11 15 16 15 13 18 19 17 16 15 12 12 15 10 9 12 13 12 12 8 6 4 6 9 7 4 9 13 8 6 10 7 9 9 7 3 4 5 4 4 4 4 3 3 3 4
7 14 23 28 5 8 10 12 18 20 17 17 16 15 13 15 16 13 10 13 11 13 10 6 4 7 1 5 1 5 4 3 5 2 7 4 4 1 3 4 3 2 4 4 3 3 3 4 5
11 12 22 21 8 7 12 14 10 15 16 17 16 17 13 15 13 16 16 13 11 8 15 13 8 8 4 4 3 4 3 6 4 4 6 3 4 3 4 3 4 4 4 4 2 2 6 4 4
14 3 16 14 6 7 6 12 10 9 8 13 16 18 16 14 16 15 14 14 12 11 6 9 7 6 5 4 3 1 2 2 3 4 6 4 9 5 5 3 3 4 4 2 4 3 3 3 3
15 14 11 19 3 4 2 6 8 12 31 11 15 15 18 15 16 15 12 11 11 11 9 9 7 9 7 2 2 2 4 0 3 3 6 8 15 3 4 3 1 4 2 3 4 4 2 2 2
5 14 13 17 12 6 9 0 7 11 29 17 12 12 17 19 16 16 15 10 12 13 10 11 9 12 9 6 3 4 2 2 1 3 5 8 1 2 3 4 3 4 3 5 4 3 3 2 3
3 11 9 11 18 11 7 9 9 21 24 28 11 13 13 17 20 17 17 16 12 12 12 11 9 8 7 7 3 4 5 1 2 4 5 2 2 6 6 6 4 5 4 4 5 5 4 3 3
5 12 14 12 13 12 9 7 8 6 2 11 11 5 9 13 20 17 15 15 12 12 11 11 10 8 7 5 4 3 4 1 2 2 1 4 1 1 4 4 3 4 4 5 4 5 4 4 4
6 14 9 6 4 7 7 6 9 7 18 11 12 7 6 13 14 17 15 14 10 12 10 11 12 10 7 8 6 5 3 3 1 1 0 1 3 2 4 3 4 5 5 5 3 4 5 5 2
17 16 9 8 7 3 2 6 5 16 5 8 12 11 9 11 14 16 15 14 12 12 11 11 12 10 8 7 6 5 5 3 3 2 2 2 2 4 5 3 4 4 4 4 5 4 3 6 6
13 11 14 12 16 7 7 5 7 18 11 9 12 13 11 9 15 16 16 14 13 13 10 11 13 11 10 9 7 7 5 3 5 5 1 3 5 3 3 3 4 3 4 5 5 4 6 6 6
13 13 13 9 5 8 6 8 10 14 10 9 12 12 11 12 13 15 14 16 13 14 12 12 12 11 11 12 9 6 6 7 6 3 5 5 5 3 4 3 3 4 4 4 5 5 5 3 4
10 11 10 14 6 8 5 3 14 7 9 12 14 13 14 14 13 13 13 15 14 13 13 13 12 12 11 7 7 10 8 7 5 5 3 2 4 3 3 2 2 3 3 4 4 4 2 5 5
11 16 12 6 9 9 3 1 7 16 8 8 6 13 16 16 14 13 13 15 14 14 13 13 13 13 9 8 6 8 7 6 7 5 5 3 3 3 3 3 1 0 4 4 4 4 3 3 3
Wind_Direction
197 196 217 250 330 116 49 45 106 99 63 72 67 73 63 80 75 102 110 109 110 116 127 108 99 88 90 80 82 83 86 84 82 82 83 93 96 101 112 113 114 110 111 121 132 135 121 111 110
227 226 229 284 230 68 60 56 61 52 70 81 76 69 78 79 88 103 111 120 119 134 123 112 102 91 92 88 90 89 88 86 85 87 85 94 98 104 110 107 109 112 128 131 129 106 103 106 111
251 260 286 228 54 52 69 75 58 49 33 116 104 108 91 112 112 111 130 129 128 118 106 111 105 95 93 93 95 93 93 90 94 91 92 94 102 103 104 108 111 112 117 117 112 109 110 108 116
250 231 237 57 67 62 64 66 40 82 96 100 114 93 79 93 108 127 137 116 110 108 109 114 104 105 100 96 97 106 94 97 97 102 101 100 103 109 111 109 107 110 109 113 112 114 110 111 117
250 284 204 80 76 65 72 85 80 81 65 96 102 102 97 101 117 132 107 106 107 110 117 111 109 105 103 106 105 106 101 101 97 99 102 107 111 113 112 107 109 107 115 113 114 109 103 106 105
279 250 38 100 81 80 58 95 101 96 86 96 113 113 109 122 134 137 125 117 128 115 112 115 116 114 115 109 113 109 113 109 107 104 110 110 111 111 109 113 113 112 111 108 109 101 106 105 112
23 332 145 69 97 66 66 43 96 94 124 113 110 122 128 134 150 129 122 134 122 123 124 137 131 127 122 121 116 122 116 114 114 118 121 126 128 126 123 121 118 121 120 122 112 114 118 129 127
138 158 71 129 84 71 84 55 59 92 97 117 129 136 145 136 149 113 120 108 97 126 136 137 141 146 144 130 124 129 133 134 134 138 147 151 149 144 140 136 133 132 133 135 135 145 153 165 194
146 220 63 50 93 141 110 72 346 122 104 128 98 141 132 146 142 131 131 108 108 127 150 125 133 117 118 132 140 144 151 157 158 166 170 175 170 154 146 148 146 148 155 163 165 174 192 202 224
321 325 69 80 92 79 78 119 194 123 104 100 115 116 138 147 155 135 146 127 151 151 137 124 118 132 108 139 152 185 171 174 190 190 179 205 191 123 207 176 156 163 175 184 188 198 211 217 228
281 62 70 44 77 104 100 125 170 104 114 128 131 137 150 149 160 150 147 153 161 136 149 108 115 133 143 145 194 163 153 220 163 205 134 260 169 151 180 175 167 181 192 188 200 220 223 227 220
1 34 75 79 149 84 72 82 80 76 110 128 137 144 151 159 164 160 157 160 144 134 159 113 134 148 144 99 61 253 207 107 2 282 212 261 58 268 200 171 186 195 178 186 200 211 212 235 231
268 271 92 110 106 102 137 77 106 107 116 128 134 147 160 174 162 161 147 141 138 141 169 131 116 112 127 136 146 69 1 329 140 143 231 60 355 310 25 116 141 231 123 245 226 204 217 186 259
43 24 8 336 129 63 51 349 107 122 136 135 143 158 157 180 163 135 129 153 149 146 159 117 132 135 145 184 130 97 331 286 169 163 99 145 225 323 309 192 21 339 21 43 64 75 8 234 211
93 16 324 310 48 108 70 325 280 144 148 150 162 157 153 185 149 155 151 151 159 155 146 134 149 146 151 161 119 133 199 210 254 159 158 169 219 250 182 284 210 238 270 13 255 267 238 250 277
42 126 92 276 253 136 108 250 254 152 160 164 165 165 165 149 166 167 157 157 137 142 135 149 189 150 176 170 133 149 223 186 234 178 176 194 201 192 216 208 246 197 204 221 198 210 225 260 260
39 8 256 288 239 164 197 183 183 167 169 171 170 173 174 153 167 184 175 152 143 129 140 172 169 134 150 125 162 175 183 186 205 173 192 183 178 174 220 225 220 183 169 204 235 168 171 240 254
200 182 246 247 116 223 218 163 161 171 180 171 176 173 186 165 169 187 212 158 158 141 147 163 194 121 100 130 226 172 148 147 205 178 173 175 217 111 247 305 151 217 144 210 114 192 230 229 243
146 266 289 325 143 282 347 93 171 172 176 183 185 172 191 166 180 172 194 191 179 178 159 175 186 127 175 190 219 129 205 178 203 172 111 90 276 261 236 310 352 290 193 312 350 242 238 271 193
119 300 299 331 4 51 44 28 6 8 199 197 192 172 176 185 165 174 192 176 178 176 186 152 150 147 223 190 196 168 267 208 177 98 114 184 231 255 186 238 266 291 334 238 253 270 308 302 18
151 150 243 251 41 7 85 56 40 318 336 186 197 189 173 181 168 173 184 179 161 150 204 145 139 160 209 244 272 149 348 173 120 103 77 349 279 240 291 162 262 277 275 291 242 242 235 323 311
137 187 241 279 311 309 356 10 240 65 295 288 202 193 176 174 177 163 176 164 166 164 184 149 165 167 199 183 220 157 153 87 172 143 171 208 26 59 262 48 47 346 347 314 295 310 261 218 273
30 171 276 307 40 49 312 316 86 156 228 259 202 184 186 169 167 177 177 171 178 165 169 157 152 180 176 197 129 183 197 200 246 101 109 94 58 36 43 32 14 348 22 334 20 17 3 306 342
338 301 277 60 28 353 281 148 280 254 215 148 146 190 164 164 161 163 169 160 164 151 165 146 146 196 176 180 181 232 150 224 52 21 120 87 57 51 83 67 35 18 8 27 10 16 335 338 322
234 259 272 54 11 221 248 309 227 121 276 142 137 151 143 132 142 147 149 153 153 137 155 149 161 176 193 176 194 215 237 213 180 199 238 168 171 144 101 23 37 21 8 355 13 357 307 288 283
295 300 306 333 189 213 86 240 123 209 150 118 128 141 139 148 140 149 150 146 149 152 164 157 158 173 181 186 203 184 196 220 115 101 110 95 17 73 36 32 37 25 24 9 5 331 335 34 358
266 269 279 290 296 138 222 118 316 283 208 142 130 131 152 154 133 140 150 147 148 156 160 149 156 172 186 178 183 174 188 141 96 115 147 115 41 96 82 39 53 41 40 30 11 9 31 19 350
277 308 307 300 40 5 328 77 169 221 165 153 142 140 142 131 137 142 155 157 156 164 155 147 161 168 185 176 159 167 150 129 116 118 59 68 89 59 67 45 50 51 52 51 3 359 29 23 349
280 233 254 277 148 170 254 57 12 316 200 158 151 152 150 143 150 151 157 155 162 163 158 151 169 176 192 147 154 139 144 126 148 110 113 120 98 123 98 37 47 54 39 47 26 350 325 15 322
256 274 253 248 261 241 320 14 348 322 62 51 135 161 145 142 153 157 156 152 162 163 162 164 179 175 173 136 145 128 124 151 116 119 119 123 142 145 135 110 133 46 59 36 348 349 348 288 287